User: anonymous   Login
Location: Unspecified
(43.4354°N, 0.0000°E)
Time: 05:11:13
(UTC+00:00)
Language:

SO-50 - Orbit

View from above orbital plane
View from above orbital plane
View from above satellite
View from above satellite

Ground track
Ground track

The orbit data is extracted from the following two-line orbital elements,

1 27607U 02058C   19203.16291087 -.00000043  00000-0  14910-4 0  9993
2 27607  64.5558 307.2622 0080175 250.0825 109.1627 14.75559726891973
Epoch (UTC): 22 July 2019 03:54:35
Eccentricity: 0.0080175
inclination: 64.5558°
perigee height: 587 km
apogee height: 699 km
right ascension of ascending node: 307.2622°
argument of perigee: 250.0825°
revolutions per day: 14.75559726
mean anomaly at epoch: 109.1627°
orbit number at epoch: 89197

The dashed part of the orbit path shows where the satellite is in the earth's shadow,  

DLR